[[[{"header":{"parameterUnit":"kt","parameterCategory":2,"dx":1,"dy":1,"la1":30.253999710083008,"la2":30.299108505249023,"lo1":-89.0895004272461,"lo2":-89.04439544677734,"nx":28,"ny":28,"refTime":"2022-09-22T21:00:00:Z","depth":0,"parameterNumber":1,"parameterNumberName":"U-component_of_WINDS"},"data":[-1.0378,-1.0359,-1.0284,-1.0228,-1.015,-1.01,-1.0058,-0.9995,-0.9925,-0.9857,-0.9804,-0.9725,-0.9625,-0.9544,-0.9483,-0.9448,-0.943,-0.9482,-0.9433,-0.927,-0.9243,-0.9217,-0.9217,-0.9478,-0.9478,-0.9614,-0.9616,-0.9617,-1.0276,-1.0199,-1.0146,-1.0042,-0.9997,-0.9903,-0.9813,-0.9782,-0.9738,-0.9651,-0.9593,-0.9525,-0.9462,-0.934,-0.9266,-0.9258,-0.9209,-0.9244,-0.9245,-0.9231,-0.9054,-0.9055,-0.9285,-0.9285,-0.9285,-0.9285,-0.9285,-0.9285,-1.007,-1.0061,-0.9952,-0.9893,-0.9819,-0.975,-0.9728,-0.9629,-0.9576,-0.9487,-0.9403,-0.9352,-0.9249,-0.9118,-0.9055,-0.9014,-0.8961,-0.8974,-0.8978,-0.8985,-0.9005,-0.8829,-0.8996,-0.8995,-0.8994,-0.8993,-0.8993,0,-0.9896,-0.9832,-0.9773,-0.9693,-0.9644,-0.9574,-0.9495,-0.9479,-0.9313,-0.9276,-0.9214,-0.9166,-0.907,-0.9004,-0.8914,-0.8843,-0.874,-0.8718,-0.8728,-0.8772,-0.8825,-0.8802,-0.8521,-0.8714,-0.8712,-0.871,-0.8708,-0.8707,-0.9687,-0.9682,-0.9528,-0.9497,-0.9434,-0.9386,-0.9341,-0.9194,-0.9153,-0.9034,-0.9033,-0.8963,-0.8899,-0.8813,-0.8695,-0.8622,-0.8572,-0.8656,-0.856,-0.8603,-0.8579,-0.8582,-0.8583,-0.8678,-0.8682,-0.8685,-0.8687,0,-0.9578,-0.9446,-0.9413,-0.9258,-0.9219,-0.9223,-0.909,-0.9073,-0.8975,-0.8939,-0.8922,-0.8769,-0.871,-0.8576,-0.8479,-0.8412,-0.8422,-0.8371,-0.8459,-0.8443,-0.8509,-0.8506,-0.8731,-0.8755,-0.8478,-0.8481,-0.8483,0,-0.9349,-0.9347,-0.9152,-0.914,-0.9134,-0.8983,-0.8982,-0.8897,-0.8801,-0.8771,-0.8629,-0.8604,-0.8434,-0.839,-0.8288,-0.8271,-0.8251,-0.82,-0.8174,-0.8214,-0.8222,-0.8192,-0.8182,-0.8107,-0.8106,-0.8105,-0.8104,0,-0.9195,-0.9084,-0.9062,-0.9015,-0.8847,-0.8841,-0.8771,-0.866,-0.8616,-0.8537,-0.8507,-0.8426,-0.8382,-0.8322,-0.8194,-0.8135,-0.8167,-0.8059,-0.8115,-0.8119,-0.813,-0.8132,-0.8363,-0.8103,-0.8103,-0.8102,-0.8102,0,-0.899,-0.8911,-0.8896,-0.8754,-0.873,-0.8714,-0.8624,-0.8578,-0.8471,-0.8406,-0.8341,-0.823,-0.8199,-0.8103,-0.8059,-0.802,-0.7986,-0.7931,-0.7933,-0.7924,-0.7821,-0.7975,-0.8205,-0.8226,-0.7916,-0.7914,-0.7912,0,-0.8853,-0.88,-0.8668,-0.8656,-0.8613,-0.8457,-0.8436,-0.8344,-0.8254,-0.8205,-0.8104,-0.8049,-0.7947,-0.7911,-0.7906,-0.7802,-0.7853,-0.779,-0.7727,-0.7726,-0.7765,-0.7974,-0.8044,-0.8169,-0.789,-0.7893,-0.7894,0,-0.8729,-0.852,-0.8527,-0.8468,-0.8318,-0.8279,-0.8255,-0.8164,-0.814,-0.8048,-0.8026,-0.794,-0.7862,-0.7802,-0.77,-0.7704,-0.7814,-0.7618,-0.7613,-0.7662,-0.7865,-0.7933,-0.7955,-0.7746,-0.7748,-0.775,-0.7877,0,-0.8459,-0.8411,-0.8421,-0.8291,-0.8238,-0.822,-0.8072,-0.8036,-0.7945,-0.7848,-0.7809,-0.7693,-0.76,-0.7584,-0.7493,-0.7541,-0.7512,-0.7427,-0.7325,-0.7461,-0.75,-0.7515,-0.728,-0.7276,-0.7273,-0.727,0,0,-0.8363,-0.829,-0.8143,-0.8111,-0.8058,-0.7892,-0.7887,-0.7814,-0.7673,-0.7641,-0.7582,-0.7446,-0.7353,-0.7321,-0.7352,-0.7312,-0.7308,-0.7264,-0.7396,-0.7411,-0.7424,-0.7468,-0.7486,-0.7264,-0.7263,-0.7262,-0.7261,0,-0.8233,-0.814,-0.8134,-0.8053,-0.7926,-0.7822,-0.7822,-0.7667,-0.7604,-0.7561,-0.7425,-0.7383,-0.7274,-0.7196,-0.7142,-0.7264,-0.7164,-0.7246,-0.7364,-0.7368,-0.7387,-0.7403,-0.7451,-0.747,-0.7253,-0.7253,-0.7254,0,-0.8088,-0.7973,-0.7952,-0.7818,-0.7733,-0.769,-0.7546,-0.7504,-0.747,-0.7288,-0.7248,-0.7163,-0.7043,-0.703,-0.7017,-0.6963,-0.7043,-0.6987,-0.7004,-0.7,-0.6997,-0.702,-0.7041,-0.677,-0.6769,-0.6768,0,0,-0.7996,-0.7948,-0.7776,-0.7779,-0.7735,-0.7579,-0.7539,-0.7441,-0.7336,-0.7295,-0.7182,-0.7085,-0.7021,-0.6982,-0.6912,-0.6917,-0.6882,-0.6934,-0.6957,-0.6976,-0.6983,-0.6985,-0.7008,-0.6764,-0.6764,-0.6764,0,0,-0.7951,-0.7752,-0.7676,-0.766,-0.7565,-0.7395,-0.7403,-0.7307,-0.7228,-0.7214,-0.7046,-0.7012,-0.6996,-0.6916,-0.6881,-0.6874,-0.6774,-0.6779,-0.6926,-0.6953,-0.6975,-0.6995,-0.6716,0,0,0,0,0,-0.774,-0.7777,-0.771,-0.7685,-0.7512,-0.7433,-0.7409,-0.7272,-0.7206,-0.7217,-0.7107,-0.7,-0.6864,-0.6829,-0.6806,-0.6847,-0.6713,-0.6722,-0.6731,-0.692,-0.695,-0.6974,0,0,0,0,0,0,-0.7729,-0.7698,-0.7709,-0.7543,-0.7502,-0.743,-0.7289,-0.7252,-0.7202,-0.7182,-0.7025,-0.6995,-0.6876,-0.6831,-0.6812,-0.6854,-0.6722,-0.6717,-0.6724,-0.6731,-0.693,-0.6954,-0.6975,0,0,0,0,0,-0.7719,-0.7694,-0.7453,-0.7541,-0.7506,-0.7332,-0.7286,-0.7254,-0.7213,-0.7042,-0.7009,-0.7114,-0.6881,-0.6856,-0.6819,-0.6866,-0.6733,-0.6727,-0.6722,-0.6728,-0.6733,-0.6942,0,0,0,0,0,0,-0.7712,-0.7665,-0.7442,-0.7427,-0.7516,-0.7334,-0.73,-0.7257,-0.7072,-0.704,-0.7122,-0.7109,-0.6885,-0.6864,-0.6846,-0.6878,-0.6743,-0.6737,-0.6733,-0.6726,-0.6731,-0.6735,0,0,0,0,0,0,-0.7677,-0.7653,-0.7434,-0.741,-0.739,-0.7336,-0.7306,-0.7253,-0.7072,-0.7163,-0.7146,-0.7119,-0.6912,-0.6871,-0.6856,-0.6779,-0.675,-0.6744,-0.674,-0.6737,-0.673,-0.6734,0,0,0,0,0,0,-0.7665,-0.7643,-0.7413,-0.7398,-0.738,-0.7193,-0.7286,-0.7116,-0.7053,-0.7174,-0.7043,-0.7039,-0.6922,-0.6903,-0.6864,-0.6794,-0.6783,-0.675,-0.6746,-0.6743,-0.6741,0,0,0,0,0,0,0,-0.7654,-0.7828,-0.7536,-0.7388,-0.7372,-0.7281,-0.7277,-0.7272,-0.7052,-0.7048,-0.7044,-0.704,-0.6785,-0.6778,-0.6772,-0.6806,0,0,-0.6751,-0.6748,0,0,0,0,0,0,0,0,-0.7834,-0.7829,-0.7536,-0.7532,-0.7529,-0.728,-0.7277,-0.7273,-0.7051,-0.7048,-0.7045,-0.7042,-0.6783,-0.6778,-0.6772,0,0,0,0,0,0,0,0,0,0,0,0,0,0,0,-0.7535,-0.7533,0,-0.728,-0.7277,-0.7274,-0.7051,-0.7048,-0.7046,-0.7043,-0.6782,-0.6777,-0.6773,0,0,0,0,0,0,0,0,0,0,0,0,0,0,0,0,0,0,0,0,0,0,0,0,0,0,0,0,0,0,0,0,0,0,0,0,0,0,0,0,0,0,0,0,0,0,0,0,0,0,0,0,0,0,0,0,0,0,0,0,0,0,0,0,0,0,0,0,0]}],[{"header":{"parameterUnit":"kt","parameterCategory":2,"dx":1,"dy":1,"la1":30.253999710083008,"la2":30.299108505249023,"lo1":-89.0895004272461,"lo2":-89.04439544677734,"nx":28,"ny":28,"refTime":"2022-09-22T21:00:00:Z","depth":0,"parameterNumber":2,"parameterNumberName":"V-component_of_WINDS"},"data":[0.7611,0.762,0.7585,0.758,0.7548,0.7538,0.7524,0.7501,0.7475,0.746,0.7446,0.7414,0.7375,0.735,0.7333,0.7319,0.7312,0.7338,0.7317,0.7231,0.7217,0.7203,0.7195,0.7339,0.7339,0.7408,0.7408,0.7409,0.7542,0.751,0.7499,0.7464,0.7453,0.7406,0.7375,0.7369,0.7362,0.7333,0.7318,0.7303,0.7288,0.724,0.722,0.7223,0.7199,0.7219,0.7215,0.7209,0.7117,0.711,0.7238,0.7238,0.7238,0.7238,0.7238,0.7238,0.7406,0.7414,0.7373,0.736,0.7335,0.7312,0.7314,0.7274,0.7264,0.7239,0.7203,0.7196,0.7161,0.7123,0.7102,0.7095,0.7067,0.7079,0.7081,0.7083,0.7087,0.698,0.7092,0.7092,0.7091,0.7091,0.709,0,0.7293,0.7263,0.7252,0.7229,0.7219,0.72,0.7176,0.7177,0.7107,0.7102,0.7092,0.7081,0.7059,0.7046,0.7022,0.6998,0.6948,0.6943,0.695,0.6962,0.6974,0.696,0.6805,0.6939,0.6938,0.6937,0.6936,0.6936,0.7147,0.7165,0.7107,0.7104,0.7082,0.708,0.707,0.7007,0.7,0.6964,0.6976,0.6963,0.6949,0.6942,0.6897,0.6882,0.6857,0.691,0.6855,0.6865,0.6849,0.6846,0.6844,0.6921,0.6923,0.6924,0.6925,0,0.7066,0.7011,0.7028,0.6972,0.6958,0.6979,0.693,0.6939,0.6901,0.6907,0.6905,0.6846,0.6839,0.6786,0.6771,0.6743,0.6772,0.6752,0.678,0.6771,0.6808,0.6803,0.6952,0.6965,0.6823,0.6825,0.6826,0,0.6916,0.6944,0.686,0.6873,0.69,0.6835,0.6864,0.6834,0.6804,0.6808,0.6745,0.675,0.6683,0.6681,0.6641,0.6657,0.6657,0.6634,0.6621,0.6636,0.6637,0.6628,0.6618,0.6603,0.6603,0.6602,0.6602,0,0.679,0.6782,0.6803,0.6792,0.6736,0.6748,0.6726,0.6693,0.6687,0.6671,0.6664,0.6653,0.6645,0.6636,0.6583,0.6546,0.6604,0.6543,0.658,0.6581,0.6592,0.6591,0.6741,0.6601,0.66,0.66,0.66,0,0.6659,0.6643,0.6687,0.6636,0.6636,0.6654,0.6634,0.6637,0.6607,0.6582,0.657,0.652,0.6536,0.6477,0.6495,0.6461,0.6456,0.6438,0.644,0.6433,0.6367,0.6449,0.6603,0.6614,0.6431,0.643,0.6429,0,0.6524,0.6556,0.65,0.6544,0.655,0.6473,0.6492,0.6468,0.6436,0.6436,0.6402,0.6405,0.6352,0.6345,0.6362,0.6325,0.6371,0.6319,0.6315,0.6316,0.6316,0.6459,0.6491,0.6576,0.6411,0.6412,0.6414,0,0.6413,0.6346,0.6359,0.6341,0.6301,0.6309,0.6332,0.632,0.6322,0.6308,0.6321,0.633,0.6285,0.6278,0.6238,0.6259,0.6339,0.621,0.6208,0.6229,0.64,0.6429,0.6444,0.6307,0.6309,0.6311,0.6399,0,0.6212,0.6224,0.6258,0.6229,0.6227,0.6256,0.6198,0.6204,0.6163,0.6129,0.6154,0.6126,0.6118,0.6125,0.6088,0.6154,0.6133,0.6089,0.6024,0.6122,0.6148,0.616,0.5988,0.5986,0.5984,0.5982,0,0,0.6093,0.6109,0.605,0.6069,0.6063,0.5985,0.6019,0.6005,0.5981,0.5978,0.5942,0.5949,0.593,0.5965,0.5992,0.5992,0.5996,0.5967,0.6078,0.6089,0.6098,0.6129,0.6142,0.5979,0.5979,0.5978,0.5977,0,0.6006,0.5987,0.6023,0.6005,0.5977,0.5939,0.5949,0.5908,0.5888,0.5915,0.585,0.586,0.5873,0.5856,0.5849,0.5962,0.5912,0.5965,0.604,0.6061,0.6075,0.6086,0.6119,0.6132,0.5973,0.5973,0.5973,0,0.588,0.5849,0.5862,0.5849,0.5831,0.5843,0.576,0.578,0.5788,0.5705,0.5733,0.5711,0.5688,0.5734,0.5753,0.5721,0.5836,0.5795,0.5805,0.5804,0.5822,0.5839,0.5853,0.5662,0.5661,0.5661,0,0,0.5813,0.5826,0.5774,0.5826,0.5819,0.5765,0.5768,0.5728,0.5708,0.5701,0.5671,0.5655,0.566,0.5665,0.5668,0.5728,0.5715,0.5759,0.5773,0.5785,0.5792,0.5813,0.5829,0.5657,0.5657,0.5657,0,0,0.5781,0.5722,0.5684,0.5738,0.5721,0.5674,0.5708,0.5661,0.5658,0.5648,0.5584,0.5577,0.562,0.5603,0.5564,0.5643,0.5581,0.559,0.5652,0.567,0.5684,0.5685,0.5476,0,0,0,0,0,0.5662,0.5728,0.5695,0.5695,0.5682,0.5693,0.5691,0.5637,0.5592,0.5619,0.5586,0.5535,0.5566,0.553,0.5533,0.5576,0.5614,0.5622,0.5629,0.5723,0.5743,0.5759,0,0,0,0,0,0,0.5662,0.5663,0.5693,0.565,0.5647,0.569,0.56,0.5588,0.5587,0.5576,0.5543,0.5534,0.549,0.5526,0.5529,0.557,0.5474,0.5617,0.5624,0.5629,0.573,0.5746,0.5759,0,0,0,0,0,0.5662,0.5663,0.5655,0.5649,0.5646,0.559,0.5597,0.5586,0.5585,0.5536,0.5525,0.5545,0.5493,0.5492,0.5527,0.557,0.5472,0.5473,0.5621,0.5626,0.5631,0.5738,0,0,0,0,0,0,0.5661,0.5653,0.5653,0.565,0.562,0.5587,0.558,0.5585,0.5543,0.5534,0.5535,0.5527,0.5496,0.5494,0.5494,0.5573,0.547,0.5471,0.5472,0.5625,0.5629,0.5633,0,0,0,0,0,0,0.5652,0.5651,0.5652,0.5618,0.5611,0.5584,0.5577,0.5602,0.5544,0.5544,0.5536,0.5532,0.5497,0.5496,0.5496,0.5537,0.5469,0.547,0.5471,0.5471,0.5629,0.5632,0,0,0,0,0,0,0.565,0.5649,0.5619,0.5613,0.5607,0.557,0.5605,0.5595,0.5514,0.5548,0.5505,0.5501,0.5501,0.5499,0.5498,0.5539,0.5537,0.5469,0.5469,0.547,0.547,0,0,0,0,0,0,0,0.5649,0.5668,0.5671,0.5609,0.5603,0.5623,0.5622,0.5621,0.5513,0.551,0.5506,0.5503,0.5461,0.5463,0.5464,0.5541,0,0,0.5468,0.5469,0,0,0,0,0,0,0,0,0.5667,0.5668,0.567,0.567,0.5669,0.5623,0.5622,0.5621,0.5512,0.551,0.5507,0.5504,0.5462,0.5463,0.5464,0,0,0,0,0,0,0,0,0,0,0,0,0,0,0,0.567,0.567,0,0.5623,0.5622,0.5622,0.5512,0.551,0.5508,0.5505,0.5462,0.5463,0.5464,0,0,0,0,0,0,0,0,0,0,0,0,0,0,0,0,0,0,0,0,0,0,0,0,0,0,0,0,0,0,0,0,0,0,0,0,0,0,0,0,0,0,0,0,0,0,0,0,0,0,0,0,0,0,0,0,0,0,0,0,0,0,0,0,0,0,0,0,0]}]]]